Simultaneous Nadir Overpasses (SNOs) Predictions

Prediction of SNOs between GOES-16 and LANDSAT-8 Satellite Orbit:

Table of predicted SNOs for the next 14.0 days since TLE Epoch: 8/3/2024
Index Date Time (GOES-16) GOES-16 Lat,Lon LANDSAT-8 Lat,Lon Distance(km) Time Diff (sec)
1 08/03/2024 14:56:34 -0.01, -75.20 -0.89, -70.96 481.38 80
2 08/04/2024 03:15:17 0.02, -75.20 -0.21, -76.15 109.27 80
3 08/06/2024 03:05:45 0.03, -75.21 0.47, -73.20 229.46 80
4 08/06/2024 15:24:20 -0.03, -75.22 0.63, -78.35 355.42 80
5 08/08/2024 15:13:14 -0.03, -75.25 -0.02, -75.39 15.53 13
6 08/10/2024 15:02:33 -0.03, -75.28 -0.64, -72.41 325.44 80
7 08/11/2024 03:21:17 0.03, -75.28 -0.44, -77.61 264.34 80
8 08/13/2024 03:11:42 0.03, -75.31 0.15, -74.62 77.08 80
9 08/15/2024 02:59:28 0.02, -75.34 0.82, -71.66 418.62 80
10 08/15/2024 15:18:02 -0.03, -75.35 0.31, -76.80 165.65 80
